1496797200.46,44907,16.56,73510.3,3.33,2.35,2.35,0,*70
1496797201.72,44908,16.56,73512.5,3.33,2.39,2.39,0,*7F
1496797202.95,44909,16.56,73510.0,3.33,2.39,2.27,0,*71
1496797204.15,44910,16.56,73510.8,3.33,2.35,2.27,0,*75
1496797205.39,44911,16.56,73508.5,3.33,2.39,2.27,0,*78
1496797206.65,44912,16.56,73508.3,3.33,2.47,2.39,0,*7D
1496797207.91,44913,16.56,73502.5,3.33,2.39,2.47,0,*7C
1496797209.16,44914,16.56,73500.5,3.33,2.39,2.47,0,*7B
1496797210.39,44915,16.56,73510.3,3.31,2.35,2.43,0,*70
1496797211.65,44916,16.56,73510.8,3.33,2.39,2.47,0,*79
1496797212.91,44917,16.56,73504.5,3.33,2.47,2.47,0,*71
1496797214.17,44918,16.56,73508.0,3.33,2.47,2.47,0,*7E
1496797215.43,44919,16.56,73502.8,3.33,2.59,2.51,0,*77
1496797216.68,44920,16.56,73502.8,3.31,2.47,2.47,0,*77
1496797217.93,44921,16.56,73504.5,3.31,2.47,2.47,0,*76
1496797219.2,44922,16.56,73510.0,3.33,2.51,2.51,0,*77
1496797220.45,44923,16.56,73510.3,3.31,2.43,2.47,0,*70
1496797221.71,44924,16.56,73498.5,3.33,2.51,2.47,0,*76
1496797222.95,44925,16.56,73510.3,3.31,2.55,2.55,0,*72
1496797224.21,44926,16.56,73502.8,3.33,2.51,2.59,0,*7B
1496797225.48,44927,16.56,73496.3,3.33,2.51,2.51,0,*72
1496797226.74,44928,16.56,73502.3,3.33,2.47,2.39,0,*74
1496797228.0,44929,16.56,73500.5,3.33,2.51,2.47,0,*7B
1496797229.26,44930,16.56,73508.3,3.33,2.59,2.47,0,*7B
1496797230.52,44931,16.56,73504.3,3.33,2.51,2.51,0,*75
1496797231.76,44932,16.56,73510.3,3.35,2.51,2.51,0,*70
1496797233.03,44933,16.56,73510.5,3.33,2.39,2.51,0,*79
1496797234.28,44934,16.56,73504.5,3.31,2.47,2.47,0,*72
1496797235.54,44935,16.56,73510.8,3.33,2.59,2.51,0,*79
1496797236.81,44936,16.56,73514.3,3.33,2.59,2.51,0,*7A
1496797238.07,44937,16.56,73512.3,3.33,2.51,2.51,0,*73
1496797239.33,44938,16.56,73514.3,3.33,2.51,2.59,0,*74
1496797240.6,44939,16.56,73514.3,3.33,2.51,2.51,0,*7D
1496797241.86,44940,16.56,73512.0,3.33,2.59,2.51,0,*7B
1496797243.13,44941,16.56,73508.3,3.33,2.59,2.51,0,*7A
1496797244.39,44942,16.56,73506.8,3.33,2.51,2.51,0,*71
1496797245.65,44943,16.56,73510.0,3.33,2.51,2.59,0,*78
1496797246.92,44944,16.56,73508.0,3.33,2.51,2.51,0,*77
1496797248.18,44945,16.56,73512.8,3.33,2.51,2.51,0,*76
1496797249.43,44946,16.56,73506.5,3.31,2.47,2.47,0,*77
1496797250.7,44947,16.56,73510.5,3.33,2.51,2.59,0,*7C
1496797251.96,44948,16.56,73510.8,3.33,2.51,2.51,0,*7B
1496797253.22,44949,16.56,73508.5,3.33,2.51,2.59,0,*72
1496797254.49,44950,16.56,73512.0,3.33,2.51,2.51,0,*72
1496797255.75,44951,16.56,73510.5,3.33,2.59,2.59,0,*73
1496797257.01,44952,16.56,73504.3,3.33,2.59,2.59,0,*70
1496797258.26,44953,16.56,73502.3,3.31,2.55,2.47,0,*70
1496797259.52,44954,16.56,73506.8,3.33,2.51,2.51,0,*76
1496797260.78,44955,16.56,73504.0,3.33,2.51,2.59,0,*7F
1496797262.05,44956,16.56,73508.0,3.33,2.59,2.51,0,*7C
1496797263.31,44957,16.56,73506.8,3.33,2.59,2.51,0,*7D
1496797264.58,44958,16.56,73504.5,3.33,2.59,2.51,0,*72
1496797265.84,44959,16.56,73510.3,3.33,2.59,2.51,0,*73
1496797267.11,44960,16.56,73508.8,3.33,2.47,2.51,0,*76
1496797268.37,44961,16.56,73508.8,3.33,2.51,2.55,0,*74
1496797269.63,44962,16.56,73508.0,3.33,2.59,2.59,0,*73
1496797270.89,44963,16.56,73510.0,3.33,2.51,2.51,0,*72
1496797272.14,44964,16.56,73510.8,3.31,2.55,2.47,0,*74
1496797273.39,44965,16.5,73506.0,3.31,2.43,2.47,0,*72
1496797274.65,44966,16.56,73510.8,3.33,2.47,2.47,0,*77
1496797275.91,44967,16.56,73512.0,3.33,2.47,2.51,0,*71
1496797277.17,44968,16.56,73514.3,3.31,2.43,2.43,0,*7B
1496797278.42,44969,16.56,73510.0,3.33,2.47,2.47,0,*78
1496797279.67,44970,16.56,73510.5,3.31,2.47,2.55,0,*71
1496797280.94,44971,16.56,73512.0,3.33,2.59,2.51,0,*79
1496797282.19,44972,16.56,73512.8,3.31,2.55,2.47,0,*73
1496797283.45,44973,16.56,73514.0,3.33,2.59,2.51,0,*7B
1496797284.7,44974,16.56,73514.8,3.31,2.47,2.55,0,*75
1496797285.97,44975,16.56,73512.8,3.33,2.51,2.51,0,*75
1496797287.23,44976,16.56,73514.5,3.33,2.51,2.51,0,*76
1496797288.48,44977,16.56,73514.8,3.31,2.55,2.55,0,*75
1496797289.74,44978,16.56,73514.0,3.33,2.59,2.59,0,*78
1496797290.99,44979,16.56,73514.0,3.31,2.55,2.59,0,*77
1496797292.23,44980,16.56,73512.5,3.31,2.55,2.55,0,*7D
1496797293.48,44981,16.56,73514.5,3.31,2.55,2.55,0,*7C
1496797294.74,44982,16.56,73512.8,3.33,2.59,2.59,0,*7D
1496797295.99,44983,16.56,73514.5,3.33,2.55,2.55,0,*7C
1496797297.24,44984,16.56,73508.3,3.31,2.47,2.55,0,*7A
1496797298.49,44985,16.56,73508.3,3.31,2.47,2.47,0,*78
1496797299.76,44986,16.56,73506.5,3.33,2.59,2.51,0,*71
1496797301.0,44987,16.56,73510.5,3.31,2.55,2.55,0,*7A
1496797302.26,44988,16.56,73514.8,3.33,2.59,2.59,0,*77
1496797303.53,44989,16.56,73514.0,3.33,2.59,2.51,0,*7E
1496797304.79,44990,16.56,73516.3,3.33,2.59,2.59,0,*7E
1496797306.05,44991,16.56,73514.5,3.33,2.59,2.59,0,*7F
1496797307.31,44992,16.56,73516.3,3.33,2.59,2.59,0,*7C
1496797308.56,44993,16.56,73520.5,3.31,2.55,2.59,0,*73
1496797309.82,44994,16.56,73520.3,3.33,2.59,2.59,0,*7A
1496797311.03,44995,16.56,73514.8,3.33,2.61,2.61,0,*7B
1496797312.29,44996,16.56,73512.8,3.31,2.59,2.59,0,*7A
1496797313.55,44997,16.56,73518.8,3.33,2.59,2.59,0,*79
1496797314.81,44998,16.56,73516.3,3.33,2.59,2.59,0,*76
1496797316.05,44999,16.56,73512.3,3.31,2.55,2.55,0,*75
1496797317.31,45000,16.56,73514.5,3.33,2.59,2.59,0,*7F
1496797318.58,45001,16.56,73518.5,3.33,2.59,2.59,0,*7E
1496797319.79,45002,16.56,73520.3,3.33,2.65,2.65,0,*7D
1496797321.02,45003,16.56,73524.8,3.35,2.69,2.69,0,*7A
1496797322.24,45004,16.56,73522.5,3.35,2.69,2.69,0,*7D
1496797323.46,45005,16.56,73522.3,3.33,2.61,2.61,0,*7A
1496797324.68,45006,16.56,73522.0,3.35,2.69,2.69,0,*7F
1496797325.91,45007,16.56,73528.0,3.35,2.69,2.69,0,*7E
1496797327.14,45008,16.56,73526.0,3.35,2.77,2.81,0,*78
1496797328.37,45009,16.56,73522.5,3.35,2.69,2.77,0,*7F
1496797329.56,45010,16.56,73522.5,3.35,2.65,2.65,0,*78
1496797330.76,45011,16.56,73520.3,3.35,2.65,2.69,0,*75
1496797331.95,45012,16.56,73516.5,3.35,2.65,2.65,0,*7A
1496797333.14,45013,16.56,73518.0,3.35,2.61,2.61,0,*7B
1496797334.39,45014,16.56,73514.8,3.37,2.69,2.77,0,*71
1496797335.6,45015,16.56,73514.5,3.35,2.65,2.77,0,*7E
1496797336.83,45016,16.56,73516.3,3.35,2.69,2.77,0,*71
1496797338.06,45017,16.56,73508.3,3.35,2.77,2.77,0,*7F
1496797339.31,45018,16.56,73510.3,3.37,2.69,2.69,0,*72
1496797340.52,45019,16.56,73518.8,3.35,2.69,2.65,0,*7D
1496797341.75,45020,16.56,73516.0,3.39,2.73,2.81,0,*7A
1496797343.0,45021,16.56,73522.8,3.37,2.69,2.69,0,*78
1496797344.22,45022,16.56,73520.5,3.35,2.69,2.69,0,*79
1496797345.45,45023,16.56,73526.5,3.35,2.69,2.69,0,*78
1496797346.68,45024,16.56,73524.3,3.37,2.65,2.69,0,*71
1496797347.91,45025,16.56,73526.3,3.37,2.65,2.69,0,*70
1496797349.12,45026,16.56,73522.8,3.37,2.65,2.65,0,*7F
1496797350.33,45027,16.56,73520.5,3.37,2.65,2.65,0,*7E
1496797351.54,45028,16.56,73520.8,3.35,2.69,2.65,0,*7F
1496797352.76,45029,16.56,73524.3,3.35,2.69,2.69,0,*72
1496797354.01,45030,16.56,73522.8,3.37,2.69,2.69,0,*78
1496797355.24,45031,16.56,73522.3,3.37,2.65,2.69,0,*75
1496797356.45,45032,16.56,73520.5,3.35,2.65,2.69,0,*74
1496797357.68,45033,16.56,73530.0,3.37,2.69,2.65,0,*77
1496797358.93,45034,16.56,73530.5,3.37,2.69,2.69,0,*7C
1496797360.14,45035,16.56,73530.3,3.37,2.65,2.65,0,*7D
1496797361.37,45036,16.56,73524.8,3.39,2.69,2.69,0,*70
1496797362.57,45037,16.56,73528.5,3.37,2.61,2.65,0,*7B
1496797363.76,45038,16.56,73530.5,3.35,2.61,2.65,0,*76
1496797364.94,45039,16.56,73528.5,3.35,2.61,2.65,0,*77
1496797366.17,45040,16.56,73532.3,3.39,2.59,2.59,0,*71
1496797367.44,45041,16.56,73530.0,3.37,2.51,2.51,0,*7E
1496797368.7,45042,16.56,73534.5,3.37,2.51,2.51,0,*7D
1496797369.9,45043,16.56,73528.3,3.35,2.61,2.55,0,*79
1496797371.14,45044,16.56,73526.5,3.37,2.55,2.61,0,*7C
1496797372.36,45045,16.56,73532.8,3.35,2.55,2.55,0,*78
1496797373.6,45046,16.56,73532.3,3.35,2.43,2.51,0,*78
1496797374.86,45047,16.56,73536.8,3.37,2.51,2.51,0,*78
1496797376.12,45048,16.56,73534.8,3.37,2.43,2.51,0,*74
1496797377.36,45049,16.56,73532.8,3.35,2.51,2.51,0,*74
1496797378.6,45050,16.56,73528.3,3.35,2.51,2.51,0,*7C
1496797379.84,45051,16.56,73528.8,3.35,2.43,2.51,0,*7E
1496797381.08,45052,16.56,73528.8,3.35,2.55,2.51,0,*7A
1496797382.3,45053,16.56,73528.8,3.35,2.55,2.55,0,*7F
1496797383.51,45054,16.56,73528.5,3.37,2.61,2.61,0,*7A
1496797384.7,45055,16.56,73530.3,3.35,2.61,2.61,0,*79
1496797385.89,45056,16.56,73532.0,3.35,2.61,2.61,0,*7A
1496797387.07,45057,16.56,73530.0,3.35,2.61,2.61,0,*7B
1496797388.3,45058,16.56,73530.3,3.37,2.61,2.55,0,*71
1496797389.53,45059,16.56,73524.8,3.35,2.55,2.55,0,*75
1496797390.76,45060,16.56,73522.3,3.35,2.55,2.55,0,*7F
1496797391.97,45061,16.56,73522.3,3.35,2.55,2.61,0,*79
1496797393.19,45062,16.56,73522.8,3.35,2.55,2.55,0,*7D
1496797394.42,45063,16.56,73522.8,3.35,2.55,2.55,0,*7C
1496797395.66,45064,16.56,73518.8,3.35,2.43,2.51,0,*78
1496797396.89,45065,16.56,73514.3,3.35,2.55,2.51,0,*7E
1496797398.1,45066,16.56,73516.8,3.35,2.61,2.55,0,*7E
1496797399.32,45067,16.56,73522.0,3.35,2.55,2.55,0,*78
1496797400.53,45068,16.56,73518.3,3.35,2.61,2.55,0,*70
1496797401.72,45069,16.56,73524.5,3.35,2.61,2.61,0,*76
1496797402.98,45070,16.56,73534.3,3.33,2.51,2.51,0,*78
1496797404.22,45071,16.56,73530.8,3.35,2.43,2.43,0,*7F
1496797405.42,45072,16.56,73528.3,3.35,2.31,2.39,0,*74
1496797406.66,45073,16.56,73520.5,3.33,2.39,2.35,0,*77
1496797407.89,45074,16.56,73520.0,3.33,2.39,2.35,0,*70
1496797409.12,45075,16.56,73522.5,3.33,2.39,2.35,0,*71
1496797410.35,45076,16.56,73522.5,3.31,2.43,2.35,0,*7D
1496797411.61,45077,16.56,73526.8,3.33,2.39,2.39,0,*7F
1496797412.87,45078,16.56,73524.5,3.33,2.47,2.39,0,*79
1496797414.12,45079,16.56,73526.0,3.31,2.47,2.43,0,*77
1496797415.38,45080,16.5,73518.8,3.33,2.51,2.47,0,*70
1496797416.63,45081,16.56,73522.8,3.31,2.43,2.43,0,*74
1496797417.89,45082,16.56,73524.0,3.31,2.43,2.47,0,*73
1496797419.15,45083,16.56,73526.0,3.33,2.51,2.59,0,*7C
1496797420.41,45084,16.56,73524.5,3.33,2.51,2.51,0,*73
1496797421.66,45085,16.5,73520.5,3.31,2.47,2.47,0,*70
1496797422.92,45086,16.56,73524.8,3.33,2.51,2.59,0,*79
1496797424.19,45087,16.56,73524.0,3.33,2.59,2.51,0,*78
1496797425.45,45088,16.56,73528.8,3.33,2.59,2.59,0,*7F
1496797426.71,45089,16.56,73530.8,3.33,2.51,2.51,0,*7E
1496797427.97,45090,16.56,73524.8,3.31,2.47,2.47,0,*74
1496797429.23,45091,16.56,73524.5,3.33,2.51,2.51,0,*77
1496797430.49,45092,16.56,73526.3,3.33,2.51,2.59,0,*7C
1496797431.75,45093,16.5,73520.8,3.33,2.51,2.47,0,*72
1496797433.02,45094,16.5,73528.8,3.33,2.51,2.51,0,*72
1496797434.28,45095,16.56,73526.3,3.33,2.51,2.51,0,*73
1496797435.54,45096,16.56,73520.5,3.33,2.47,2.47,0,*70
1496797436.79,45097,16.56,73518.3,3.31,2.43,2.43,0,*73
1496797438.05,45098,16.56,73518.8,3.33,2.39,2.47,0,*77
1496797439.31,45099,16.56,73514.3,3.31,2.43,2.51,0,*7E
1496797440.58,45100,16.56,73516.0,3.33,2.51,2.51,0,*7E
1496797441.83,45101,16.5,73518.0,3.31,2.43,2.43,0,*7D
1496797443.08,45102,16.5,73526.3,3.31,2.55,2.47,0,*7D
1496797444.33,45103,16.5,73528.0,3.31,2.43,2.47,0,*7B
1496797445.58,45104,16.56,73526.5,3.31,2.43,2.47,0,*7C
1496797446.83,45105,16.56,73524.0,3.31,2.43,2.43,0,*79
1496797448.09,45106,16.5,73520.8,3.33,2.47,2.47,0,*78
1496797449.34,45107,16.5,73520.5,3.31,2.47,2.43,0,*7F
1496797450.59,45108,16.56,73522.3,3.31,2.55,2.47,0,*77
1496797451.84,45109,16.56,73522.3,3.31,2.55,2.47,0,*76
1496797453.08,45110,16.56,73522.0,3.31,2.55,2.47,0,*7E
1496797454.33,45111,16.5,73520.3,3.31,2.55,2.59,0,*70
1496797455.57,45112,16.5,73520.5,3.33,2.59,2.61,0,*76
1496797456.82,45113,16.5,73520.0,3.31,2.55,2.59,0,*72
1496797458.08,45114,16.56,73522.3,3.33,2.59,2.59,0,*7B
1496797459.33,45115,16.5,73518.0,3.31,2.55,2.55,0,*78
1496797460.59,45116,16.56,73524.3,3.33,2.59,2.59,0,*79
1496797461.84,45117,16.56,73524.8,3.31,2.55,2.47,0,*79
1496797463.09,45118,16.56,73522.5,3.31,2.47,2.55,0,*76
1496797464.35,45119,16.5,73520.5,3.33,2.51,2.51,0,*76
1496797465.55,45120,16.56,73520.8,3.31,2.35,2.35,0,*7E
1496797466.75,45121,16.56,73524.3,3.31,2.31,2.35,0,*7B
1496797468.01,45122,16.5,73522.0,3.33,2.47,2.47,0,*7E
1496797469.27,45123,16.56,73522.5,3.33,2.47,2.47,0,*7F
1496797470.52,45124,16.56,73518.3,3.31,2.43,2.43,0,*7A
1496797471.75,45125,16.5,73500.0,3.31,2.35,2.43,0,*7A
1496797472.94,45126,16.56,73500.5,3.31,2.31,2.35,0,*7C
1496797474.17,45127,16.5,73508.0,3.31,2.35,2.43,0,*78
1496797475.37,45128,16.56,73514.8,3.29,2.35,2.43,0,*7E
1496797476.63,45129,16.5,73518.8,3.31,2.47,2.43,0,*73
1496797477.88,45130,16.56,73526.8,3.31,2.55,2.43,0,*78
1496797479.13,45131,16.5,73526.8,3.31,2.47,2.43,0,*7A
1496797480.38,45132,16.56,73528.8,3.31,2.55,2.43,0,*7A
1496797481.64,45133,16.5,73524.0,3.31,2.47,2.43,0,*78
1496797482.89,45134,16.5,73520.8,3.31,2.47,2.43,0,*7F
1496797484.12,45135,16.5,73522.8,3.29,2.43,2.43,0,*73
1496797485.32,45136,16.5,73518.5,3.29,2.43,2.35,0,*71
1496797486.56,45137,16.56,73526.3,3.29,2.43,2.43,0,*71
1496797487.79,45138,16.56,73520.8,3.29,2.43,2.43,0,*7E
1496797489.0,45139,16.5,73520.8,3.29,2.47,2.35,0,*7A
1496797490.23,45140,16.5,73524.0,3.29,2.43,2.43,0,*71
1496797491.43,45141,16.5,73524.3,3.29,2.43,2.35,0,*71
1496797492.67,45142,16.56,73520.5,3.29,2.43,2.43,0,*73
1496797493.87,45143,16.56,73518.5,3.29,2.43,2.35,0,*73
1496797495.1,45144,16.56,73520.3,3.29,2.47,2.47,0,*75
1496797496.33,45145,16.56,73524.8,3.29,2.55,2.47,0,*77
1496797497.58,45146,16.5,73526.0,3.27,2.51,2.43,0,*7A
1496797498.81,45147,16.5,73522.3,3.29,2.47,2.55,0,*75
1496797500.04,45148,16.56,73526.8,3.29,2.55,2.47,0,*7A
1496797501.27,45149,16.5,73522.0,3.29,2.47,2.55,0,*7B
1496797502.49,45150,16.56,73518.0,3.29,2.47,2.55,0,*73
1496797503.7,45151,16.56,73516.0,3.29,2.43,2.35,0,*70
1496797504.93,45152,16.56,73514.5,3.29,2.43,2.43,0,*72
1496797506.16,45153,16.5,73512.3,3.29,2.43,2.47,0,*77
1496797507.39,45154,16.5,73512.8,3.29,2.55,2.55,0,*74
1496797508.62,45155,16.5,73516.8,3.29,2.55,2.47,0,*76
1496797509.84,45156,16.5,73514.8,3.29,2.55,2.55,0,*76
1496797511.07,45157,16.56,73516.0,3.29,2.47,2.55,0,*74
1496797512.3,45158,16.56,73518.5,3.29,2.55,2.47,0,*7B
1496797513.53,45159,16.56,73524.8,3.29,2.47,2.55,0,*7A
1496797514.75,45160,16.56,73522.0,3.29,2.55,2.59,0,*7F
1496797515.98,45161,16.56,73522.3,3.29,2.55,2.59,0,*7E
1496797517.21,45162,16.56,73522.8,3.29,2.55,2.55,0,*71
1496797518.43,45163,16.5,73522.0,3.29,2.55,2.55,0,*70
1496797519.66,45164,16.5,73522.3,3.29,2.59,2.55,0,*7B
1496797520.89,45165,16.5,73522.3,3.29,2.59,2.59,0,*76
1496797522.1,45166,16.56,73522.8,3.29,2.61,2.59,0,*7E
1496797523.33,45167,16.5,73526.3,3.29,2.59,2.59,0,*74
1496797524.56,45168,16.5,73522.3,3.29,2.59,2.59,0,*7B
1496797525.81,45169,16.56,73530.0,3.27,2.55,2.55,0,*74
1496797527.04,45170,16.56,73524.8,3.29,2.59,2.59,0,*72
1496797528.27,45171,16.5,73518.8,3.29,2.59,2.59,0,*73
1496797529.51,45172,16.5,73512.0,3.29,2.59,2.59,0,*70
1496797530.73,45173,16.5,73514.0,3.29,2.55,2.59,0,*7D
1496797531.99,45174,16.5,73512.8,3.31,2.59,2.59,0,*7F
1496797533.24,45175,16.56,73516.5,3.31,2.59,2.59,0,*7E
1496797534.49,45176,16.56,73516.0,3.31,2.59,2.59,0,*7D
1496797535.74,45177,16.5,73520.5,3.31,2.59,2.59,0,*7C
1496797536.98,45178,16.56,73522.5,3.29,2.59,2.59,0,*7A
1496797538.21,45179,16.5,73520.8,3.29,2.59,2.59,0,*7B
1496797539.46,45180,16.5,73524.5,3.31,2.59,2.59,0,*74
1496797540.71,45181,16.5,73522.3,3.31,2.55,2.59,0,*79
1496797541.96,45182,16.5,73524.0,3.31,2.55,2.55,0,*76
1496797543.2,45183,16.56,73526.0,3.31,2.55,2.47,0,*74
1496797544.45,45184,16.5,73526.8,3.31,2.55,2.47,0,*73
1496797545.68,45185,16.5,73526.3,3.29,2.47,2.55,0,*7B
1496797546.91,45186,16.56,73532.8,3.29,2.55,2.55,0,*7B
1496797548.14,45187,16.5,73528.3,3.29,2.43,2.47,0,*7E
1496797549.37,45188,16.5,73528.0,3.29,2.47,2.47,0,*75
1496797550.59,45189,16.5,73530.8,3.29,2.55,2.47,0,*77
1496797551.82,45190,16.5,73528.0,3.29,2.47,2.47,0,*7C
1496797553.06,45191,16.5,73528.5,3.29,2.43,2.43,0,*7D
1496797554.29,45192,16.5,73530.0,3.29,2.43,2.47,0,*7A
1496797555.49,45193,16.5,73530.0,3.29,2.35,2.43,0,*7E
1496797556.69,45194,16.5,73530.8,3.27,2.31,2.31,0,*76
1496797557.89,45195,16.5,73522.5,3.29,2.43,2.35,0,*78
1496797559.09,45196,16.5,73516.3,3.27,2.31,2.31,0,*74
1496797560.29,45197,16.56,73516.3,3.29,2.43,2.35,0,*7A
1496797561.49,45198,16.5,73518.3,3.29,2.43,2.35,0,*75
1496797562.75,45199,16.5,73524.0,3.27,2.39,2.51,0,*75
1496797563.98,45200,16.5,73520.8,3.29,2.47,2.47,0,*76
1496797565.17,45201,16.5,73524.3,3.27,2.31,2.31,0,*79
1496797566.4,45202,16.5,73526.3,3.27,2.31,2.39,0,*72
1496797567.63,45203,16.5,73524.5,3.29,2.47,2.43,0,*71
1496797568.83,45204,16.5,73522.8,3.27,2.31,2.31,0,*7C
1496797570.06,45205,16.5,73528.3,3.29,2.55,2.47,0,*70
1496797571.31,45206,16.5,73534.3,3.27,2.43,2.43,0,*7E
1496797572.54,45207,16.5,73524.0,3.29,2.43,2.47,0,*75
1496797573.71,45208,16.5,73516.5,3.29,2.35,2.35,0,*7E
1496797574.91,45209,16.5,73516.5,3.27,2.31,2.31,0,*71
1496797576.13,45210,16.5,73514.0,3.27,2.39,2.31,0,*71
1496797577.35,45211,16.5,73520.0,3.27,2.39,2.31,0,*70
1496797578.6,45212,16.5,73520.5,3.27,2.51,2.43,0,*78
1496797579.85,45213,16.5,73514.0,3.27,2.51,2.47,0,*7D
1496797581.11,45214,16.5,73514.5,3.27,2.51,2.43,0,*7E
1496797582.36,45215,16.5,73518.0,3.27,2.51,2.51,0,*7C
1496797583.62,45216,16.56,73526.8,3.27,2.43,2.43,0,*7F
1496797584.87,45217,16.5,73524.8,3.27,2.51,2.51,0,*7E
1496797586.13,45218,16.56,73526.5,3.27,2.51,2.51,0,*71
1496797587.39,45219,16.5,73526.8,3.27,2.51,2.51,0,*70
1496797588.64,45220,16.5,73524.5,3.27,2.43,2.51,0,*79
1496797589.9,45221,16.5,73522.8,3.27,2.51,2.51,0,*7B
1496797591.16,45222,16.5,73520.3,3.27,2.51,2.51,0,*78
1496797592.38,45223,16.5,73520.8,3.29,2.55,2.55,0,*77
1496797593.64,45224,16.5,73526.8,3.27,2.51,2.51,0,*7E
1496797594.89,45225,16.5,73522.8,3.27,2.51,2.55,0,*7B
1496797596.14,45226,16.5,73522.3,3.27,2.51,2.59,0,*74
1496797597.37,45227,16.5,73524.5,3.29,2.55,2.59,0,*7F
1496797598.58,45228,16.5,73528.8,3.29,2.59,2.61,0,*77
1496797599.82,45229,16.5,73524.5,3.29,2.59,2.59,0,*7D
1496797601.05,45230,16.5,73524.5,3.29,2.59,2.59,0,*75
1496797602.26,45231,16.5,73528.0,3.29,2.59,2.61,0,*7F
1496797603.47,45232,16.5,73526.3,3.29,2.59,2.61,0,*7C
1496797604.72,45233,16.5,73524.5,3.27,2.55,2.59,0,*74
1496797605.95,45234,16.5,73526.0,3.29,2.59,2.59,0,*71
1496797607.18,45235,16.5,73528.3,3.29,2.59,2.59,0,*70
1496797608.44,45236,16.5,73526.5,3.27,2.59,2.59,0,*7D
1496797609.68,45237,16.5,73524.3,3.27,2.55,2.55,0,*7C
1496797610.91,45238,16.5,73526.8,3.29,2.59,2.59,0,*7D
1496797612.13,45239,16.5,73526.5,3.29,2.59,2.61,0,*77
1496797613.33,45240,16.5,73530.0,3.29,2.61,2.59,0,*79
1496797614.54,45241,16.5,73528.5,3.29,2.61,2.59,0,*78
1496797615.74,45242,16.5,73534.3,3.29,2.61,2.69,0,*78
1496797616.96,45243,16.5,73534.5,3.31,2.61,2.69,0,*70
1496797618.19,45244,16.5,73534.5,3.31,2.69,2.61,0,*77
1496797619.4,45245,16.5,73534.0,3.31,2.61,2.61,0,*7E
1496797620.62,45246,16.5,73534.0,3.31,2.61,2.59,0,*76
1496797621.85,45247,16.5,73536.3,3.31,2.61,2.59,0,*77
1496797623.06,45248,16.5,73532.0,3.29,2.59,2.61,0,*71
1496797624.29,45249,16.5,73532.5,3.29,2.59,2.59,0,*7B
1496797625.5,45250,16.5,73536.0,3.31,2.61,2.61,0,*7A
1496797626.71,45251,16.5,73534.0,3.33,2.65,2.65,0,*79
1496797627.93,45252,16.5,73538.5,3.31,2.61,2.69,0,*70
1496797629.14,45253,16.5,73538.0,3.29,2.69,2.61,0,*78
1496797630.37,45254,16.5,73540.5,3.35,2.77,2.69,0,*75
1496797631.6,45255,16.5,73534.0,3.31,2.59,2.61,0,*74
1496797632.83,45256,16.5,73536.0,3.31,2.61,2.59,0,*77
1496797634.04,45257,16.5,73536.8,3.33,2.61,2.65,0,*7B
1496797635.27,45258,16.5,73538.5,3.33,2.69,2.61,0,*78
1496797636.52,45259,16.5,73538.5,3.31,2.69,2.69,0,*73
1496797637.75,45260,16.5,73536.8,3.31,2.69,2.61,0,*71
1496797638.99,45261,16.5,73532.0,3.31,2.69,2.69,0,*78
1496797640.21,45262,16.5,73532.5,3.31,2.61,2.69,0,*73
1496797641.45,45263,16.5,73532.3,3.33,2.61,2.73,0,*7B
1496797642.67,45264,16.5,73534.0,3.33,2.65,2.61,0,*7B
1496797643.92,45265,16.5,73532.8,3.31,2.59,2.59,0,*7C
1496797645.12,45266,16.5,73532.3,3.31,2.61,2.61,0,*7F
1496797646.34,45267,16.5,73534.0,3.33,2.65,2.61,0,*78
1496797647.55,45268,16.5,73534.0,3.33,2.61,2.65,0,*77
1496797648.76,45269,16.5,73534.5,3.35,2.65,2.69,0,*78
1496797650.01,45270,16.5,73534.8,3.31,2.59,2.59,0,*78
1496797651.23,45271,16.5,73538.3,3.33,2.65,2.65,0,*7B
1496797652.44,45272,16.5,73538.3,3.33,2.61,2.61,0,*78
1496797653.65,45273,16.5,73538.3,3.33,2.61,2.61,0,*79
1496797654.92,45274,16.5,73532.8,3.33,2.59,2.59,0,*7E
1496797656.17,45275,16.5,73530.0,3.31,2.55,2.51,0,*79
1496797657.43,45276,16.5,73530.8,3.33,2.51,2.59,0,*74
1496797658.7,45277,16.5,73526.5,3.33,2.51,2.51,0,*7D
1496797659.96,45278,16.5,73518.3,3.33,2.59,2.51,0,*7A
1496797661.22,45279,16.5,73518.8,3.33,2.59,2.51,0,*7B
1496797662.47,45280,16.5,73520.5,3.31,2.55,2.55,0,*77
1496797663.73,45281,16.5,73522.3,3.33,2.59,2.51,0,*7C
1496797664.99,45282,16.5,73524.5,3.33,2.59,2.59,0,*77
1496797666.24,45283,16.5,73522.3,3.31,2.55,2.47,0,*77
1496797667.49,45284,16.5,73522.3,3.31,2.55,2.55,0,*73
1496797668.72,45285,16.5,73520.8,3.31,2.55,2.61,0,*75
1496797669.9,45286,16.5,73524.8,3.35,2.65,2.65,0,*75
1496797671.16,45287,16.5,73524.0,3.31,2.59,2.59,0,*70
1496797672.39,45288,16.5,73518.3,3.33,2.61,2.59,0,*76
1496797673.64,45289,16.5,73524.5,3.31,2.55,2.55,0,*7E
1496797674.9,45290,16.5,73520.0,3.33,2.59,2.59,0,*74
1496797676.16,45291,16.5,73526.0,3.33,2.51,2.55,0,*71
1496797677.42,45292,16.5,73522.8,3.33,2.59,2.59,0,*76
1496797678.68,45293,16.56,73530.5,3.33,2.59,2.59,0,*77
1496797679.94,45294,16.5,73530.8,3.33,2.59,2.59,0,*70
1496797681.19,45295,16.5,73528.5,3.31,2.55,2.47,0,*70
1496797682.44,45296,16.5,73528.5,3.31,2.47,2.47,0,*70
1496797683.7,45297,16.5,73528.3,3.33,2.59,2.59,0,*73
1496797684.96,45298,16.5,73530.3,3.33,2.59,2.51,0,*74
1496797686.23,45299,16.5,73530.0,3.33,2.51,2.51,0,*7D
1496797687.48,45300,16.5,73528.5,3.31,2.47,2.47,0,*7E
1496797688.73,45301,16.5,73528.0,3.31,2.47,2.47,0,*7F
1496797689.98,45302,16.5,73528.8,3.31,2.47,2.55,0,*7F
1496797691.24,45303,16.5,73532.0,3.33,2.59,2.51,0,*77
1496797692.49,45304,16.5,73530.5,3.31,2.55,2.55,0,*7A
1496797693.74,45305,16.5,73530.8,3.31,2.55,2.55,0,*7B
1496797694.98,45306,16.5,73528.5,3.31,2.55,2.55,0,*78
1496797696.23,45307,16.5,73534.3,3.31,2.55,2.55,0,*79
1496797697.48,45308,16.5,73534.8,3.31,2.59,2.55,0,*7A
1496797698.73,45309,16.5,73534.3,3.31,2.47,2.55,0,*74
1496797699.97,45310,16.5,73534.5,3.31,2.55,2.47,0,*7C
1496797701.22,45311,16.5,73532.5,3.31,2.47,2.55,0,*7D
1496797702.47,45312,16.5,73526.8,3.31,2.55,2.47,0,*7E
1496797703.72,45313,16.5,73528.0,3.31,2.47,2.55,0,*7F
1496797704.97,45314,16.5,73528.3,3.31,2.55,2.55,0,*7B
1496797706.21,45315,16.5,73532.0,3.31,2.55,2.55,0,*7A
1496797707.46,45316,16.5,73532.8,3.31,2.55,2.55,0,*79
1496797708.71,45317,16.5,73530.0,3.31,2.47,2.47,0,*78
1496797709.96,45318,16.5,73534.8,3.31,2.47,2.43,0,*73
1496797711.19,45319,16.5,73528.0,3.31,2.43,2.35,0,*77
1496797712.44,45320,16.5,73528.8,3.31,2.43,2.43,0,*7C
1496797713.67,45321,16.5,73530.8,3.29,2.55,2.43,0,*73
1496797714.87,45322,16.5,73524.0,3.31,2.35,2.35,0,*7E
1496797716.09,45323,16.5,73524.0,3.31,2.43,2.35,0,*7E
1496797717.32,45324,16.5,73524.5,3.31,2.35,2.43,0,*79
1496797718.51,45325,16.5,73524.0,3.31,2.35,2.35,0,*79
1496797719.75,45326,16.5,73526.5,3.29,2.43,2.43,0,*73
1496797720.95,45327,16.5,73522.5,3.29,2.43,2.35,0,*73
1496797722.16,45328,16.5,73528.5,3.29,2.43,2.35,0,*7C
1496797723.38,45329,16.5,73532.0,3.29,2.43,2.55,0,*7B
1496797724.58,45330,16.5,73526.8,3.27,2.31,2.31,0,*7A
1496797725.76,45331,16.5,73532.3,3.29,2.31,2.35,0,*71
1496797726.96,45332,16.5,73534.0,3.29,2.35,2.43,0,*77
1496797728.17,45333,16.5,73534.0,3.29,2.35,2.43,0,*76
1496797729.4,45334,16.5,73534.5,3.29,2.43,2.43,0,*70
1496797730.62,45335,16.5,73532.0,3.27,2.39,2.31,0,*77
1496797731.85,45336,16.5,73536.0,3.29,2.47,2.43,0,*76
1496797733.11,45337,16.5,73532.5,3.27,2.39,2.39,0,*7D
1496797734.34,45338,16.5,73536.3,3.29,2.43,2.43,0,*7C
1496797735.59,45339,16.5,73532.0,3.27,2.43,2.39,0,*7E
1496797736.85,45340,16.5,73538.3,3.27,2.51,2.51,0,*7D
1496797738.08,45341,16.5,73536.3,3.29,2.47,2.47,0,*72
1496797739.28,45342,16.5,73532.3,3.27,2.31,2.27,0,*78
1496797740.45,45343,16.5,73526.5,3.29,2.31,2.31,0,*70
1496797741.67,45344,16.5,73530.8,3.27,2.27,2.21,0,*7F
1496797742.91,45345,16.5,73528.3,3.27,2.21,2.21,0,*78
1496797744.13,45346,16.5,73524.3,3.27,2.27,2.21,0,*7D